M0XDC Weather Reports


time (UTC)temp
F
wind
direction
speed
knots
gust
knots
rain 1hr
in
rain 24hr
in
rain mn
in
humidity
%
barometer
mb
20260507234433 45 90 0.0 1.7 0.00 0.00 0.00 90 1014.8
20260507233218 45 90 0.0 1.7 0.00 0.00 0.00 90 1014.7
20260507231503 46 90 0.0 1.7 0.00 0.00 0.00 89 1014.6
20260507231433 46 90 0.0 1.7 0.00 0.00 0.00 89 1014.7
20260507230005 46 90 0.0 1.7 0.00 0.00 0.00 89 1014.7
20260507224505 46 90 0.0 1.7 0.00 0.00 0.00 88 1014.8
20260507224433 46 90 0.0 1.7 0.00 0.00 0.00 88 1015.0
20260507223220 47 109 0.0 1.7 0.00 0.00 0.00 88 1014.7
20260507221505 47 58 0.9 1.7 0.00 0.00 0.00 86 1014.9
20260507221433 47 58 0.9 1.7 0.00 0.00 0.00 86 1015.0
20260507220003 47 67 0.0 1.7 0.00 0.00 0.00 86 1014.9
20260507214433 47 67 0.0 1.7 0.00 0.00 0.00 85 1015.0
20260507211503 48 90 0.9 1.7 0.00 0.00 0.00 84 1014.8
20260507211433 48 90 0.9 1.7 0.00 0.00 0.00 85 1014.8
20260507210006 48 67 0.0 1.7 0.00 0.00 0.00 83 1014.7
20260507204503 49 86 0.0 1.7 0.00 0.00 0.00 82 1014.9
20260507204433 49 82 0.0 1.7 0.00 0.00 0.00 82 1014.7
20260507203005 49 74 0.9 1.7 0.00 0.00 0.00 81 1014.6
20260507201504 50 75 0.9 3.5 0.00 0.00 0.00 80 1014.2
20260507201433 50 75 0.9 3.5 0.00 0.00 0.00 80 1014.4
20260507200008 50 67 0.9 1.7 0.00 0.00 0.00 80 1014.2
20260507194505 50 84 0.9 3.5 0.00 0.00 0.00 79 1014.4
20260507194433 50 79 0.9 3.5 0.00 0.00 0.00 79 1014.1
20260507193005 50 72 0.9 3.5 0.00 0.00 0.00 78 1014.2
20260507191505 51 82 0.9 3.5 0.00 0.00 0.00 77 1013.9
20260507191433 51 80 0.9 3.5 0.00 0.00 0.00 77 1013.9
20260507190006 51 51 0.9 3.5 0.00 0.00 0.00 76 1014.1
20260507184503 51 55 1.7 5.2 0.00 0.00 0.00 74 1014.0
20260507184433 51 60 0.9 5.2 0.00 0.00 0.00 74 1013.9
20260507183005 52 55 1.7 3.5 0.00 0.00 0.00 73 1014.0
20260507181504 53 101 1.7 3.5 0.00 0.00 0.00 71 1013.9
20260507181433 53 108 0.9 3.5 0.00 0.00 0.00 71 1013.8
20260507180003 53 59 1.7 6.1 0.00 0.00 0.00 69 1013.7
20260507174717 53 60 2.6 7.0 0.00 0.00 0.00 69 1013.7
20260507174433 53 69 1.7 7.0 0.00 0.00 0.00 69 1013.8
20260507173005 53 78 1.7 3.5 0.00 0.00 0.00 68 1013.6
20260507171506 54 60 2.6 7.0 0.00 0.00 0.00 68 1013.5
20260507171433 54 58 1.7 7.0 0.00 0.00 0.00 68 1013.7
20260507170005 54 97 1.7 3.5 0.00 0.00 0.00 64 1013.7
20260507164503 55 141 0.9 5.2 0.00 0.00 0.00 62 1013.6
20260507164433 55 139 1.7 5.2 0.00 0.00 0.00 62 1013.8
20260507163004 57 105 0.9 7.0 0.00 0.00 0.00 61 1013.8
20260507161718 57 135 1.7 6.1 0.00 0.00 0.00 62 1013.8
20260507161433 57 70 0.9 5.2 0.00 0.00 0.00 62 1013.8
20260507160003 57 134 1.7 5.2 0.00 0.00 0.00 60 1013.7
20260507154503 58 48 2.6 3.5 0.00 0.00 0.00 58 1013.8
20260507154433 58 49 2.6 3.5 0.00 0.00 0.00 58 1013.8
20260507153003 57 64 2.6 6.1 0.00 0.00 0.00 59 1013.7
20260507151718 57 175 0.9 6.1 0.00 0.00 0.00 59 1013.6
20260507151433 56 169 0.9 6.1 0.00 0.00 0.00 60 1013.6
20260507150005 56 138 1.7 5.2 0.00 0.00 0.00 61 1013.6
20260507144505 56 132 1.7 5.2 0.00 0.00 0.00 63 1013.5
20260507144433 56 126 1.7 6.1 0.00 0.00 0.00 63 1013.7
20260507143004 56 79 2.6 6.1 0.00 0.00 0.00 60 1013.7
20260507141503 56 63 2.6 5.2 0.00 0.00 0.00 62 1013.9
20260507141433 56 58 2.6 5.2 0.00 0.00 0.00 62 1013.7
20260507140217 57 67 1.7 5.2 0.00 0.00 0.00 60 1013.7
20260507134719 57 80 1.7 6.1 0.00 0.00 0.00 61 1013.8
20260507134433 57 81 2.6 7.0 0.00 0.00 0.00 62 1013.9
20260507133218 57 112 1.7 6.1 0.00 0.00 0.00 62 1013.8
20260507131503 57 71 1.7 7.0 0.00 0.00 0.00 62 1014.0
20260507131433 57 68 2.6 7.0 0.00 0.00 0.00 61 1013.9
20260507130005 57 82 1.7 5.2 0.00 0.00 0.00 64 1014.0
20260507124503 55 77 1.7 3.5 0.00 0.00 0.00 65 1014.2
20260507124433 55 70 1.7 3.5 0.00 0.00 0.00 66 1014.1
20260507123005 54 79 1.7 5.2 0.00 0.00 0.00 68 1014.2
20260507121503 53 65 0.9 3.5 0.00 0.00 0.00 70 1014.1
20260507121433 53 72 0.9 3.5 0.00 0.00 0.00 70 1014.0
20260507120003 53 61 1.7 3.5 0.00 0.00 0.00 71 1014.2
20260507114505 53 69 0.9 3.5 0.00 0.00 0.00 67 1014.2
20260507114433 53 66 1.7 3.5 0.00 0.00 0.00 67 1014.2
20260507113005 53 65 0.9 3.5 0.00 0.00 0.00 66 1014.2
20260507111504 53 80 0.9 3.5 0.00 0.00 0.00 67 1014.4
20260507111433 53 81 1.7 3.5 0.00 0.00 0.00 67 1014.2
20260507110008 54 63 0.9 3.5 0.00 0.00 0.00 64 1014.5
20260507104504 55 91 0.9 3.5 0.00 0.00 0.00 64 1014.5
20260507104433 55 102 0.0 1.7 0.00 0.00 0.00 64 1014.2
20260507103003 54 37 1.7 3.5 0.00 0.00 0.00 65 1014.6
20260507101506 53 57 0.9 3.5 0.00 0.00 0.00 67 1014.5
20260507101433 53 54 1.7 3.5 0.00 0.00 0.00 66 1014.5
20260507100217 53 119 1.7 1.7 0.00 0.00 0.00 66 1014.4
20260507094718 53 198 0.0 3.5 0.00 0.00 0.00 67 1014.4
20260507094433 53 181 0.0 3.5 0.00 0.00 0.00 69 1014.4
20260507091503 54 114 0.0 1.7 0.00 0.00 0.00 66 1014.2
20260507091433 54 121 0.0 1.7 0.00 0.00 0.00 66 1014.5
20260507090004 54 65 1.7 3.5 0.00 0.00 0.00 68 1014.2
20260507084505 53 80 0.0 3.5 0.00 0.00 0.00 68 1014.2
20260507084433 53 86 1.7 3.5 0.00 0.00 0.00 67 1014.2
20260507083003 53 79 0.9 3.5 0.00 0.00 0.00 68 1014.2
20260507081505 52 64 0.0 1.7 0.00 0.00 0.00 71 1014.2
20260507081433 52 59 0.0 1.7 0.00 0.00 0.00 72 1014.4
20260507080003 52 52 0.0 3.5 0.00 0.00 0.00 73 1014.1
20260507074506 51 64 0.9 3.5 0.00 0.00 0.00 75 1014.2
20260507074433 50 60 1.7 3.5 0.00 0.00 0.00 75 1014.0
20260507073006 50 74 0.9 3.5 0.00 0.00 0.00 76 1014.0
20260507071505 49 71 0.9 1.7 0.00 0.00 0.00 77 1013.8
20260507071433 49 72 0.9 1.7 0.00 0.00 0.00 77 1014.0
20260507070218 48 83 1.7 3.5 0.00 0.00 0.00 78 1014.1
20260507064504 48 68 0.9 3.5 0.00 0.00 0.00 79 1014.0
20260507064433 48 62 0.9 3.5 0.00 0.00 0.00 79 1014.0
20260507061505 47 54 0.9 1.7 0.00 0.00 0.00 82 1013.8
20260507061433 47 51 0.9 1.7 0.00 0.00 0.00 82 1013.8
20260507060003 46 62 1.7 3.5 0.00 0.00 0.00 83 1013.8
20260507054505 46 49 1.7 1.7 0.00 0.00 0.00 84 1013.8
20260507054433 46 49 0.9 1.7 0.00 0.00 0.00 84 1013.5
20260507053005 45 67 0.0 1.7 0.00 0.00 0.00 84 1013.5
20260507051505 45 67 0.9 1.7 0.00 0.00 0.00 84 1013.6
20260507051433 45 67 0.0 1.7 0.00 0.00 0.00 84 1013.5
20260507050005 44 67 0.0 1.7 0.00 0.00 0.00 85 1013.5
20260507044433 44 67 0.0 1.7 0.00 0.00 0.00 85 1013.3
20260507043005 44 67 0.0 1.7 0.00 0.00 0.00 85 1013.2
20260507041504 44 52 0.0 1.7 0.00 0.00 0.00 85 1013.0
20260507041433 44 52 0.0 1.7 0.00 0.00 0.00 85 1013.3
20260507040005 45 45 0.0 1.7 0.00 0.00 0.00 84 1013.2
20260507034503 45 59 0.0 1.7 0.00 0.00 0.00 85 1013.2
20260507034433 45 67 0.0 1.7 0.00 0.00 0.00 85 1013.3
20260507033217 45 90 0.0 3.5 0.00 0.00 0.00 85 1013.0
20260507031505 45 60 1.7 5.2 0.00 0.00 0.00 85 1013.2
20260507031433 45 58 1.7 5.2 0.00 0.00 0.00 85 1013.2
20260507030218 45 51 0.9 3.5 0.00 0.00 0.00 86 1013.3
20260507024505 45 45 0.0 1.7 0.00 0.00 0.00 85 1013.0
20260507024433 45 45 0.0 1.7 0.00 0.00 0.00 85 1013.2
20260507023003 45 45 0.0 1.7 0.00 0.00 0.00 85 1013.0
20260507021503 45 45 0.0 1.7 0.00 0.00 0.00 85 1013.0
20260507021433 45 45 0.0 1.7 0.00 0.00 0.00 85 1012.9
20260507020218 45 45 0.0 1.7 0.00 0.00 0.00 85 1013.0
20260507014504 45 0 0.0 0.0 0.00 0.00 0.00 84 1013.0
20260507014433 45 0 0.0 0.0 0.00 0.00 0.00 84 1012.8
20260507013003 46 45 0.0 1.7 0.00 0.00 0.00 84 1012.8
20260507011505 46 79 0.0 1.7 0.00 0.00 0.00 84 1012.8
20260507011433 46 79 0.0 1.7 0.00 0.00 0.00 83 1012.6
20260507010005 46 121 0.0 1.7 0.00 0.00 0.00 83 1012.7
20260507004719 47 70 0.0 1.7 0.00 0.00 0.00 82 1012.8
20260507004433 47 51 0.0 1.7 0.00 0.00 0.00 82 1012.8
20260507003003 47 67 0.9 1.7 0.00 0.00 0.00 81 1012.8
20260507001508 47 59 0.0 1.7 0.00 0.00 0.00 81 1012.7
20260507001433 47 56 0.0 1.7 0.00 0.00 0.00 81 1013.0
20260507000003 47 45 0.9 1.7 0.00 0.00 0.00 81 1012.8